www.pogodaiklimat.ru

Погода и климат >> Архив погоды >> Боливия >> Рейес


ПОГОДА в Рейесе

  • Прогноз погоды в Рейесе
  • Монитор погоды в Рейесе

АРХИВ ПОГОДЫ в Рейесе

Время (UTC), дата Ветер
(напр.,м/с)
 
Видим.   Явления Облачность Т
(С)
Тd
(С)
f
(%)
Тe
(С)
Тes
(С)
Комфортность P
(гПа)
Po
(гПа)
Тmin
(С)
Tmax
(С)
R
(мм)
R24
(мм)
S
(см)
12 9.06 штиль 0 20 км 9/0 2000 м
[Ac lent Cs]
+20.4 +19.8 96 +24 +26 комфорт 1016.2 995.2 +19.7
15 9.06 Ю 3 20 км 9/0
[Cs]
+24.7 +20.1 76 +30 +38 очень
душно
1017.3 996.1
18 9.06 штиль 0 20 км 9/0
[Cs]
+29.4 +21.2 61 +37 +50 очень
душно
1016.0 995.0
21 9.06 штиль 0 20 км 9/1 500 м
[Cu med, cong Cs]
+28.4 +21.6 67 +36 +38 очень
душно
1014.0 993.0 +30.4
12 10.06 штиль 0 900 м туман 4/0 2000 м
[Ac trans]
+19.4 +19.4 100 +22 +23 комфорт 1013.9 992.8 +18.4
15 10.06 штиль 0 20 км 4/0 2000 м
[Ac trans]
+29.0 +22.7 69 +38 +50 очень
душно
1015.1 994.0
18 10.06 СЗ 2 20 км 3/3 500 м
[Cu hum]
+31.4 +22.0 57 +40 +49 очень
душно
1012.9 992.0
21 10.06 СЗ 2 20 км 1/1 600 м
[Cu hum]
+30.4 +22.2 62 +39 +41 очень
душно
1011.5 990.6 +32.0
12 11.06 штиль 0 20 км ясно +21.8 +21.0 95 +28 +30 душно 1012.9 992.0 +19.5
15 11.06 С 3 20 км 1/1 450 м
[Cu med, cong]
+29.7 +23.4 69 +40 +49 очень
душно
1014.3 993.3
18 11.06 С 4 20 км 6/6 500 м
[Cu med, cong]
+31.2 +23.7 64 +42 +45 опасность
перегрева
1012.9 992.0
21 11.06 С 3 20 км 1/1 500 м
[Cu med, cong]
+31.0 +23.2 63 +41 +42 опасность
перегрева
1011.0 990.2 +32.2
12 12.06 штиль 0 20 км 4/0
[Ci fib]
+21.8 +21.3 97 +28 +30 душно 1012.6 991.7 +21.0
15 12.06 СЗ 3 20 км 3/3 500 м
[Cu hum]
+29.4 +23.5 71 +40 +48 очень
душно
1014.7 993.2
18 12.06 С 2 20 км 4/4 600 м
[Cu hum]
+31.2 +23.6 64 +42 +49 опасность
перегрева
1012.9 992.0
21 12.06 СЗ 2 20 км 6/1 600 м
[Cu hum Ac und]
+29.6 +23.4 69 +40 +41 очень
душно
1011.1 990.3 +31.6
12 13.06 штиль 0 20 км 5/5 750 м
[Sc]
+20.8 +20.5 98 +25 +26 комфорт 1012.4 991.5 +19.5
15 13.06 СЗ 3 20 км 6/1 480 м
[Cu hum Ac und]
+29.4 +22.7 67 +39 +44 очень
душно
1014.8 993.8
18 13.06 СЗ 3 20 км 8/4 500 м
[Cu hum Ac und]
+30.0 +23.3 67 +40 +43 очень
душно
1014.0 993.0
21 13.06 СЗ 2 20 км 9/0 2000 м
[Ac und]
+29.0 +23.6 73 +40 +40 очень
душно
1011.9 991.0 +30.4
12 14.06 штиль 0 20 км 9/5 500 м
[Sc Ac und]
+23.6 +22.8 95 +31 +31 очень
душно
1012.6 991.7 +22.8
15 14.06 штиль 0 8000 м осадки на расстоянии 9/6 700 м
[Sc Ac und]
+26.2 +23.5 85 +36 +39 очень
душно
1014.8 993.8
18 14.06 штиль 0 20 км {дождь} 8/5 500 м
[Cu med, cong Ac und]
+27.4 +24.7 85 +39 +43 очень
душно
1013.1 992.2 7
21 14.06 штиль 0 8000 м осадки на расстоянии 9/5 480 м
[Cb calv Ac und Ci]
+26.4 +24.0 87 +37 +37 очень
душно
1011.2 990.3 +29.0
12 15.06 штиль 0 4000 м слаб. дождь 10/5 450 м
[Sc As op]
+23.0 +22.7 98 +32 +32 очень
душно
1013.0 991.8 +22.5 15
15 15.06 штиль 0 20 км 10/6 1050 м
[Sc As op]
+25.5 +23.8 90 +35 +36 очень
душно
1014.4 993.4
18 15.06 штиль 0 20 км 10/6 450 м
[Sc Cs]
+27.4 +24.2 83 +38 +43 очень
душно
1013.5 992.6
21 15.06 штиль 0 20 км 10/8 450 м
[Sc Cs]
+27.0 +23.4 81 +37 +37 очень
душно
1011.9 991.0 +28.8

 

Местоположение метеостанции Рейес (Боливия): широта -14.31 долгота -67.38 высота над уровнем моря 140 м.

В архиве по умолчанию представлена погода в Рейесе за последнюю неделю. Архивные данные за месяц целиком и за предыдущие месяцы, начиная с января 2011 года, Вы можете получить, выбрав интересующий диапазон дат из раскрывающегося списка и нажав кнопку "Ввод!".


*Определитесь, кто Вы:
робот инопланетянин человек

Внимание! Время в таблицах - всемирное. Для получения местного времени необходимо прибавить поправку, которая равна -4 ч.

Смотрите также архив погоды в соседних городах и на ближайших метеорологических станциях:

Погода в Рурренабаке (Боливия) (26 км)
Погода в Санта-Розе (Боливия) (54 км)
Погода в Сан-Борхе (Боливия) (83 км)
Погода в Сан Игнасио де Moксосе (Боливия) (203 км)
Погода в Санта-Ане (Боливия) (219 км)
Погода в Бауресе (Боливия) (219 км)
Погода в Овежуйо (Боливия) (256 км)
Погода в Ла-Пасе (Боливия) (259 км)
Погода в Тринидаде (Боливия) (272 км)
Погода в Пуэрто Мальдонадо (Перу) (275 км)

Пояснения к столбцам:

Ветер - указаны скорость ветра в м/с - средняя за 10 мин, порывы в срок и между сроками (в фигурных скобках) и направление, откуда дует ветер: С - северный, СВ - северо-восточный, В - восточный, ЮВ - юго-восточный, Ю - южный, ЮЗ - юго-западный, З - западный, СЗ - северо-западный.
Видимость - горизонтальная дальность видимости в метрах или километрах. При видимости от 1 до 10 км при отсутствии осадков обычно наблюдается дымка, при ухудшении видимости до 1 км и менее - туман. В сухую погоду видимость может ухудшаться дымом, пылью или мглою.
Явления - указаны атмосферные явления, наблюдавшиеся в срок или в последний час перед сроком; фигурными скобками обозначены явления, наблюдавшиеся между сроками (за 1-3 часа до срока); квадратными скобками обозначены град или гололедные отложения с указанием их диаметра в мм.
Облачность - указаны через наклонную черту общая и нижняя облачность в баллах и высота нижней границы облаков в метрах; квадратными скобками обозначены формы облаков: Ci - перистые, Cs - перисто-слоистые, Cc - перисто-кучевые, Ac - высококучевые, As - высокослоистые, Sc - слоисто-кучевые, Ns - слоисто-дождевые, Cu - кучевые, Cb - кучево-дождевые. Подробнее классификацию облаков см. в Атласе облаков (PDF).
T - Температура воздуха - температура, измеренная на высоте 2 м над землей.
Td - Температура точки росы - температура, при понижении до которой содержащийся в воздухе водяной пар достигнет насыщения.
f - Относительная влажность воздуха - влажноcть воздуха, измеренная на высоте 2 м над землей.
Te - Эффективная температура - температура, которую ощущает одетый по сезону человек в тени. Характеристика душности погоды. При расчете учитывается влияние влажности воздуха и скорости ветра на теплоощущения человека.
Tes - Эффективная температура на солнце - температура, которую ощущает человек, с поправкой на солнечный нагрев. Характеристика знойности погоды. Зависит от высоты солнца над горизонтом, облачности и скорости ветра. Ночью, в пасмурную погоду, а также при ветре 12 м/с и более поправка равна нулю.
P - Атмосферное давление - приведенное к уровню моря атмосферное давление.
Po - Атмосферное давление - измеренное на уровне метеостанции атмосферное давление.
Tmin - Минимальная температура - минимум температуры воздуха на высоте 2 м над землей.
Tmax - Максимальная температура - максимум температуры воздуха на высоте 2 м над землей.
R - Количество осадков - Количество выпавших осадков за период времени, мм. При наведении курсора мыши на число - период времени, за который выпало указанное количество осадков.
R24 - Количество осадков - Количество выпавших осадков за 24 часа, мм.
S - Снежный покров - Высота снежного покрова, см. При наведении курсора мыши на число - состояние снежного покрова и степень покрытия местности в баллах.